Flag for Greece Weather past 2 weeks in Alexandroupoli, Greece

Now
55 °F

Partly sunny.


Feels Like: N/A
Forecast: 45 / 48 °F
Wind: N/A

Location: Alexandroupoli Airport

Current Time: Oct 25, 2014 at 12:05:09 PM

Latest Report: Oct 25, 2014 at 11:20 AM


Visibility: N/A

Pressure: 29.80 "Hg

Humidity: 82%

Dew point: 50 °F

Location of AlexandroupoliLocation

Historic Weather in Alexandroupoli — Graph

°F

Alexandroupoli temperature yesterday

Maximum temperature yesterday: 64 °F (at 2:20 PM)
Minimum temperature yesterday: 48 °F (at 4:50 AM)
Average temperature yesterday: 57 °F

Past Weeks' High & Low Weather Summary

 TemperatureHumidityPressure
High79 °F (Oct 18, 12:20 PM)100% (Oct 15, 9:50 PM)30.36 "Hg (Oct 15, 9:50 PM)
Low39 °F (Oct 20, 7:50 AM)19% (Oct 19, 11:50 AM)29.50 "Hg (Oct 23, 2:20 PM)
Average62 °F73%29.96 "Hg
* Reported Oct 10 10:20 AM — Oct 25 10:50 AM, Alexandroupoli, Weather by CustomWeather, © 2014

Note: Actual official high and low records may vary slightly from our data, if they occured in-between our weather recording intervals... More about our weather records

Advertising

Alexandroupoli weather history for previous 24 hours

 ConditionsComfort  
Time TempWeatherWind HumidityBarometerVisibility
10:50 AM
Oct 25
55 °FPartly sunny.N/A88%29.80 "HgN/A
10:20 AM55 °FPartly sunny.N/A88%29.80 "HgN/A
9:50 AM55 °FLight rain. Partly sunny.N/A88%29.80 "Hg4 mi
9:20 AM54 °FRain. Partly sunny.N/A94%29.77 "Hg4 mi
8:50 AM54 °FLight rain. Partly sunny.N/A88%29.77 "Hg4 mi
8:20 AM55 °FLight rain. Passing clouds.N/A94%29.71 "Hg5 mi
7:50 AM55 °FLight rain. Passing clouds.N/A94%29.71 "HgN/A
7:20 AM55 °FPartly cloudy.N/A88%29.68 "HgN/A
6:50 AM55 °FPartly cloudy.N/A88%29.68 "HgN/A
6:20 AM55 °FPartly cloudy.N/A88%29.68 "HgN/A
5:50 AM54 °FMostly cloudy.N/A94%29.68 "HgN/A
5:20 AM50 °FMostly cloudy.N/A88%29.68 "HgN/A
4:50 AM50 °FMostly cloudy.N/A88%29.68 "HgN/A
4:20 AM50 °FMostly cloudy.N/A94%29.68 "HgN/A
11:50 PM
Oct 24
55 °FMostly cloudy.N/A94%29.74 "HgN/A
11:20 PM55 °FMostly cloudy.N/A94%29.77 "HgN/A
10:50 PM55 °FLight rain. Mostly cloudy.N/A94%29.77 "HgN/A
10:20 PM57 °FRain. Mostly cloudy.N/A94%29.77 "HgN/A
9:50 PM57 °FRain. Mostly cloudy.N/A94%29.77 "HgN/A
9:20 PM57 °FLight rain. Mostly cloudy.N/A94%29.77 "HgN/A
8:50 PM57 °FLight rain. Mostly cloudy.N/A94%29.77 "HgN/A
8:20 PM57 °FLight rain. Mostly cloudy.N/A88%29.77 "HgN/A
7:50 PM57 °FLight rain. Mostly cloudy.N/A77%29.77 "HgN/A
7:20 PM57 °FLight rain. Mostly cloudy.N/A77%29.77 "HgN/A
6:50 PM59 °FLight rain. Mostly cloudy.N/A72%29.77 "HgN/A
6:20 PM61 °FMostly cloudy.N/A68%29.80 "HgN/A
5:50 PM61 °FMostly cloudy.N/A68%29.80 "HgN/A
5:20 PM61 °FCloudy.N/A68%29.83 "HgN/A
4:50 PM61 °FCloudy.N/A68%29.83 "HgN/A
4:20 PM63 °FBroken clouds.N/A68%29.83 "HgN/A
3:50 PM63 °FBroken clouds.N/A68%29.83 "HgN/A
3:20 PM64 °FBroken clouds.N/A60%29.83 "HgN/A
2:50 PM64 °FScattered clouds.N/A60%29.83 "HgN/A
2:20 PM64 °FScattered clouds.N/A64%29.86 "HgN/A
1:50 PM63 °FScattered clouds.N/A68%29.86 "HgN/A
1:20 PM63 °FScattered clouds.N/A68%29.86 "HgN/A
12:50 PM61 °FBroken clouds.N/A72%29.86 "HgN/A
12:20 PM59 °FPartly sunny.N/A82%29.92 "HgN/A
Weather by CustomWeather, © 2014

See weather overviewHow to use our weather pages